Information on these data can be found in provided Readme document
Contact Info: Zachary Fasnacht (zachary.fasnacht@ssaihq.com); Nickolay Krotkov (nickolay.a.krotkov@nasa.gov); Lok Lamsal (lok.lamsal@nasa.gov)

FillValue: -999.
ScaleFactor: 1e15
Units: molecules/cm^2

Date(yyyy-mm-dd),City,Country,LonCenter,LatCenter,BoundingCoordinates,Median,Q1,Q3,Mean,Baseline_Median,Baseline_Q1,Baseline_Q3,Baseline_Mean,NumGoodSamples,NumTotalSamples
2015-01-01,Nairobi,Kenya,36.9167,-1.4167,[36.4167 -1.9167 37.4167 -0.9167000000000001],0.507,-0.053,0.983,0.505,0.441,-0.063,0.932,0.445,255.0,499.0
2015-01-02,Nairobi,Kenya,36.9167,-1.4167,[36.4167 -1.9167 37.4167 -0.9167000000000001],0.487,-0.033,0.99,0.502,0.423,-0.084,0.931,0.431,255.0,527.0
2015-01-03,Nairobi,Kenya,36.9167,-1.4167,[36.4167 -1.9167 37.4167 -0.9167000000000001],0.485,-0.022,0.99,0.497,0.452,-0.04,0.965,0.467,266.0,491.0
2015-01-04,Nairobi,Kenya,36.9167,-1.4167,[36.4167 -1.9167 37.4167 -0.9167000000000001],0.487,-0.058,0.999,0.496,0.446,-0.071,0.957,0.452,257.0,525.0
2015-01-05,Nairobi,Kenya,36.9167,-1.4167,[36.4167 -1.9167 37.4167 -0.9167000000000001],0.487,-0.018,0.974,0.502,0.424,-0.067,0.959,0.452,233.0,498.0
2015-01-06,Nairobi,Kenya,36.9167,-1.4167,[36.4167 -1.9167 37.4167 -0.9167000000000001],0.478,-0.02,0.972,0.491,0.472,-0.039,0.997,0.467,249.0,515.0
2015-01-07,Nairobi,Kenya,36.9167,-1.4167,[36.4167 -1.9167 37.4167 -0.9167000000000001],0.478,-0.018,0.918,0.447,0.417,-0.082,0.937,0.428,243.0,510.0
2015-01-08,Nairobi,Kenya,36.9167,-1.4167,[36.4167 -1.9167 37.4167 -0.9167000000000001],0.446,-0.022,0.908,0.417,0.434,-0.072,0.94,0.426,245.0,504.0
2015-01-09,Nairobi,Kenya,36.9167,-1.4167,[36.4167 -1.9167 37.4167 -0.9167000000000001],0.446,-0.018,0.918,0.441,0.45,-0.056,0.965,0.457,249.0,519.0
2015-01-10,Nairobi,Kenya,36.9167,-1.4167,[36.4167 -1.9167 37.4167 -0.9167000000000001],0.446,-0.018,0.918,0.441,0.452,-0.053,0.964,0.455,249.0,468.0
2015-01-11,Nairobi,Kenya,36.9167,-1.4167,[36.4167 -1.9167 37.4167 -0.9167000000000001],0.478,0.038,0.999,0.505,0.483,-0.036,0.992,0.474,227.0,496.0
2015-01-12,Nairobi,Kenya,36.9167,-1.4167,[36.4167 -1.9167 37.4167 -0.9167000000000001],0.478,0.034,0.99,0.491,0.475,-0.04,0.977,0.463,200.0,469.0
2015-01-13,Nairobi,Kenya,36.9167,-1.4167,[36.4167 -1.9167 37.4167 -0.9167000000000001],0.504,0.081,1.044,0.553,0.441,-0.083,0.978,0.464,197.0,500.0
2015-01-14,Nairobi,Kenya,36.9167,-1.4167,[36.4167 -1.9167 37.4167 -0.9167000000000001],0.505,0.146,1.021,0.582,0.455,-0.068,1.032,0.489,192.0,483.0
2015-01-15,Nairobi,Kenya,36.9167,-1.4167,[36.4167 -1.9167 37.4167 -0.9167000000000001],0.504,0.086,0.937,0.537,0.454,-0.069,0.983,0.478,202.0,490.0
2015-01-16,Nairobi,Kenya,36.9167,-1.4167,[36.4167 -1.9167 37.4167 -0.9167000000000001],0.504,0.081,0.941,0.562,0.438,-0.061,0.958,0.484,209.0,493.0
2015-01-17,Nairobi,Kenya,36.9167,-1.4167,[36.4167 -1.9167 37.4167 -0.9167000000000001],0.504,0.081,0.989,0.566,0.455,-0.036,0.97,0.497,223.0,471.0
2015-01-18,Nairobi,Kenya,36.9167,-1.4167,[36.4167 -1.9167 37.4167 -0.9167000000000001],0.505,0.08,0.989,0.578,0.465,-0.057,0.99,0.495,218.0,500.0
2015-01-19,Nairobi,Kenya,36.9167,-1.4167,[36.4167 -1.9167 37.4167 -0.9167000000000001],0.505,0.08,0.99,0.585,0.475,-0.041,0.986,0.513,229.0,463.0
2015-01-20,Nairobi,Kenya,36.9167,-1.4167,[36.4167 -1.9167 37.4167 -0.9167000000000001],0.563,0.044,1.046,0.598,0.485,-0.023,0.983,0.516,220.0,499.0
2015-01-21,Nairobi,Kenya,36.9167,-1.4167,[36.4167 -1.9167 37.4167 -0.9167000000000001],0.513,0.038,0.954,0.561,0.465,-0.042,0.95,0.496,196.0,473.0
2015-01-22,Nairobi,Kenya,36.9167,-1.4167,[36.4167 -1.9167 37.4167 -0.9167000000000001],0.505,0.013,0.954,0.535,0.486,-0.008,0.972,0.51,214.0,490.0
2015-01-23,Nairobi,Kenya,36.9167,-1.4167,[36.4167 -1.9167 37.4167 -0.9167000000000001],0.562,0.039,1.021,0.565,0.497,0.004,0.957,0.511,210.0,487.0
2015-01-24,Nairobi,Kenya,36.9167,-1.4167,[36.4167 -1.9167 37.4167 -0.9167000000000001],0.562,0.039,1.048,0.573,0.491,-0.014,0.949,0.49,211.0,484.0
2015-01-25,Nairobi,Kenya,36.9167,-1.4167,[36.4167 -1.9167 37.4167 -0.9167000000000001],0.562,0.039,1.054,0.573,0.491,-0.019,0.957,0.488,232.0,523.0
2015-01-26,Nairobi,Kenya,36.9167,-1.4167,[36.4167 -1.9167 37.4167 -0.9167000000000001],0.571,0.086,1.066,0.615,0.47,-0.017,0.952,0.488,249.0,494.0
2015-01-27,Nairobi,Kenya,36.9167,-1.4167,[36.4167 -1.9167 37.4167 -0.9167000000000001],0.59,0.104,1.08,0.634,0.504,0.012,0.973,0.507,243.0,525.0
2015-01-28,Nairobi,Kenya,36.9167,-1.4167,[36.4167 -1.9167 37.4167 -0.9167000000000001],0.595,0.149,1.12,0.653,0.52,0.049,0.971,0.513,255.0,497.0
2015-01-29,Nairobi,Kenya,36.9167,-1.4167,[36.4167 -1.9167 37.4167 -0.9167000000000001],0.582,0.082,1.12,0.64,0.51,0.034,0.953,0.501,268.0,528.0
2015-01-30,Nairobi,Kenya,36.9167,-1.4167,[36.4167 -1.9167 37.4167 -0.9167000000000001],0.566,0.051,1.12,0.63,0.509,0.048,0.961,0.515,257.0,511.0
2015-01-31,Nairobi,Kenya,36.9167,-1.4167,[36.4167 -1.9167 37.4167 -0.9167000000000001],0.536,0.039,1.111,0.581,0.514,0.049,0.976,0.515,261.0,518.0
2015-02-01,Nairobi,Kenya,36.9167,-1.4167,[36.4167 -1.9167 37.4167 -0.9167000000000001],0.536,0.05,1.066,0.574,0.515,0.054,0.976,0.52,269.0,524.0
2015-02-02,Nairobi,Kenya,36.9167,-1.4167,[36.4167 -1.9167 37.4167 -0.9167000000000001],0.524,0.051,1.063,0.569,0.503,0.039,0.946,0.504,282.0,503.0
2015-02-03,Nairobi,Kenya,36.9167,-1.4167,[36.4167 -1.9167 37.4167 -0.9167000000000001],0.524,0.051,1.062,0.562,0.506,0.035,0.947,0.496,279.0,530.0
2015-02-04,Nairobi,Kenya,36.9167,-1.4167,[36.4167 -1.9167 37.4167 -0.9167000000000001],0.554,0.132,1.062,0.585,0.508,0.071,0.933,0.497,290.0,494.0
2015-02-05,Nairobi,Kenya,36.9167,-1.4167,[36.4167 -1.9167 37.4167 -0.9167000000000001],0.555,0.155,1.119,0.614,0.484,0.066,0.935,0.487,279.0,528.0
2015-02-06,Nairobi,Kenya,36.9167,-1.4167,[36.4167 -1.9167 37.4167 -0.9167000000000001],0.602,0.182,1.12,0.66,0.485,0.069,0.933,0.488,250.0,503.0
2015-02-07,Nairobi,Kenya,36.9167,-1.4167,[36.4167 -1.9167 37.4167 -0.9167000000000001],0.6,0.211,1.12,0.666,0.479,0.063,0.934,0.491,262.0,519.0
2015-02-08,Nairobi,Kenya,36.9167,-1.4167,[36.4167 -1.9167 37.4167 -0.9167000000000001],0.595,0.179,1.12,0.644,0.446,0.079,0.928,0.487,238.0,515.0
2015-02-09,Nairobi,Kenya,36.9167,-1.4167,[36.4167 -1.9167 37.4167 -0.9167000000000001],0.6,0.179,1.12,0.658,0.461,0.092,0.931,0.498,225.0,510.0
2015-02-10,Nairobi,Kenya,36.9167,-1.4167,[36.4167 -1.9167 37.4167 -0.9167000000000001],0.618,0.167,1.12,0.659,0.471,0.086,0.922,0.501,229.0,528.0
2015-02-11,Nairobi,Kenya,36.9167,-1.4167,[36.4167 -1.9167 37.4167 -0.9167000000000001],0.618,0.167,1.12,0.659,0.463,0.094,0.889,0.496,229.0,474.0
2015-02-12,Nairobi,Kenya,36.9167,-1.4167,[36.4167 -1.9167 37.4167 -0.9167000000000001],0.604,0.155,1.079,0.627,0.469,0.091,0.876,0.498,210.0,503.0
2015-02-13,Nairobi,Kenya,36.9167,-1.4167,[36.4167 -1.9167 37.4167 -0.9167000000000001],0.566,0.248,1.05,0.637,0.46,0.1,0.888,0.507,199.0,475.0
2015-02-14,Nairobi,Kenya,36.9167,-1.4167,[36.4167 -1.9167 37.4167 -0.9167000000000001],0.634,0.302,1.083,0.686,0.463,0.089,0.887,0.509,214.0,506.0
2015-02-15,Nairobi,Kenya,36.9167,-1.4167,[36.4167 -1.9167 37.4167 -0.9167000000000001],0.651,0.308,1.083,0.723,0.462,0.1,0.884,0.511,202.0,492.0
2015-02-16,Nairobi,Kenya,36.9167,-1.4167,[36.4167 -1.9167 37.4167 -0.9167000000000001],0.634,0.264,1.083,0.705,0.467,0.106,0.889,0.506,202.0,498.0
2015-02-17,Nairobi,Kenya,36.9167,-1.4167,[36.4167 -1.9167 37.4167 -0.9167000000000001],0.666,0.319,1.106,0.75,0.49,0.106,0.914,0.524,210.0,501.0
2015-02-18,Nairobi,Kenya,36.9167,-1.4167,[36.4167 -1.9167 37.4167 -0.9167000000000001],0.666,0.326,1.117,0.745,0.499,0.108,0.917,0.522,221.0,481.0
2015-02-19,Nairobi,Kenya,36.9167,-1.4167,[36.4167 -1.9167 37.4167 -0.9167000000000001],0.634,0.303,1.117,0.735,0.486,0.078,0.912,0.512,216.0,509.0
2015-02-20,Nairobi,Kenya,36.9167,-1.4167,[36.4167 -1.9167 37.4167 -0.9167000000000001],0.626,0.319,1.106,0.725,0.495,0.094,0.919,0.522,226.0,474.0
2015-02-21,Nairobi,Kenya,36.9167,-1.4167,[36.4167 -1.9167 37.4167 -0.9167000000000001],0.618,0.278,1.106,0.699,0.498,0.094,0.916,0.52,219.0,508.0
2015-02-22,Nairobi,Kenya,36.9167,-1.4167,[36.4167 -1.9167 37.4167 -0.9167000000000001],0.605,0.278,1.105,0.686,0.497,0.091,0.921,0.532,196.0,481.0
2015-02-23,Nairobi,Kenya,36.9167,-1.4167,[36.4167 -1.9167 37.4167 -0.9167000000000001],0.605,0.262,1.106,0.683,0.535,0.104,0.946,0.549,232.0,496.0
2015-02-24,Nairobi,Kenya,36.9167,-1.4167,[36.4167 -1.9167 37.4167 -0.9167000000000001],0.562,0.248,1.083,0.641,0.538,0.107,0.956,0.551,243.0,491.0
2015-02-25,Nairobi,Kenya,36.9167,-1.4167,[36.4167 -1.9167 37.4167 -0.9167000000000001],0.535,0.225,1.044,0.61,0.528,0.096,0.948,0.546,245.0,485.0
2015-02-26,Nairobi,Kenya,36.9167,-1.4167,[36.4167 -1.9167 37.4167 -0.9167000000000001],0.535,0.225,1.049,0.611,0.522,0.091,0.964,0.549,268.0,524.0
2015-02-27,Nairobi,Kenya,36.9167,-1.4167,[36.4167 -1.9167 37.4167 -0.9167000000000001],0.495,0.205,1.044,0.583,0.52,0.082,0.965,0.552,288.0,493.0
2015-02-28,Nairobi,Kenya,36.9167,-1.4167,[36.4167 -1.9167 37.4167 -0.9167000000000001],0.49,0.109,1.049,0.569,0.525,0.069,0.988,0.548,267.0,522.0
2015-03-01,Nairobi,Kenya,36.9167,-1.4167,[36.4167 -1.9167 37.4167 -0.9167000000000001],0.49,0.08,0.961,0.54,0.526,0.068,0.968,0.54,255.0,494.0
2015-03-02,Nairobi,Kenya,36.9167,-1.4167,[36.4167 -1.9167 37.4167 -0.9167000000000001],0.478,0.039,0.961,0.519,0.518,0.069,0.973,0.537,273.0,524.0
2015-03-03,Nairobi,Kenya,36.9167,-1.4167,[36.4167 -1.9167 37.4167 -0.9167000000000001],0.478,0.074,0.919,0.512,0.514,0.059,0.958,0.531,266.0,507.0
2015-03-04,Nairobi,Kenya,36.9167,-1.4167,[36.4167 -1.9167 37.4167 -0.9167000000000001],0.477,0.031,0.919,0.496,0.515,0.062,0.938,0.52,266.0,515.0
2015-03-05,Nairobi,Kenya,36.9167,-1.4167,[36.4167 -1.9167 37.4167 -0.9167000000000001],0.473,0.01,0.919,0.494,0.495,0.045,0.927,0.523,270.0,521.0
2015-03-06,Nairobi,Kenya,36.9167,-1.4167,[36.4167 -1.9167 37.4167 -0.9167000000000001],0.478,0.048,0.934,0.519,0.501,0.06,0.943,0.536,283.0,498.0
2015-03-07,Nairobi,Kenya,36.9167,-1.4167,[36.4167 -1.9167 37.4167 -0.9167000000000001],0.478,-0.01,0.919,0.501,0.525,0.058,0.963,0.547,280.0,524.0
2015-03-08,Nairobi,Kenya,36.9167,-1.4167,[36.4167 -1.9167 37.4167 -0.9167000000000001],0.456,-0.01,0.919,0.482,0.54,0.058,0.967,0.544,291.0,488.0
2015-03-09,Nairobi,Kenya,36.9167,-1.4167,[36.4167 -1.9167 37.4167 -0.9167000000000001],0.446,-0.022,0.919,0.479,0.517,0.044,0.947,0.521,282.0,523.0
2015-03-10,Nairobi,Kenya,36.9167,-1.4167,[36.4167 -1.9167 37.4167 -0.9167000000000001],0.431,0.01,0.919,0.483,0.483,-0.0,0.925,0.504,257.0,498.0
2015-03-11,Nairobi,Kenya,36.9167,-1.4167,[36.4167 -1.9167 37.4167 -0.9167000000000001],0.446,0.031,0.927,0.508,0.489,0.021,0.925,0.501,274.0,514.0
2015-03-12,Nairobi,Kenya,36.9167,-1.4167,[36.4167 -1.9167 37.4167 -0.9167000000000001],0.431,0.051,0.921,0.497,0.485,0.033,0.919,0.498,269.0,509.0
2015-03-13,Nairobi,Kenya,36.9167,-1.4167,[36.4167 -1.9167 37.4167 -0.9167000000000001],0.428,0.052,0.919,0.483,0.482,0.046,0.911,0.488,272.0,504.0
2015-03-14,Nairobi,Kenya,36.9167,-1.4167,[36.4167 -1.9167 37.4167 -0.9167000000000001],0.428,0.052,0.927,0.507,0.476,0.036,0.923,0.478,273.0,522.0
2015-03-15,Nairobi,Kenya,36.9167,-1.4167,[36.4167 -1.9167 37.4167 -0.9167000000000001],0.428,0.052,0.927,0.507,0.479,0.026,0.93,0.483,273.0,470.0
2015-03-16,Nairobi,Kenya,36.9167,-1.4167,[36.4167 -1.9167 37.4167 -0.9167000000000001],0.397,0.085,0.98,0.513,0.47,0.039,0.949,0.509,253.0,500.0
2015-03-17,Nairobi,Kenya,36.9167,-1.4167,[36.4167 -1.9167 37.4167 -0.9167000000000001],0.397,0.123,0.996,0.54,0.464,0.055,0.947,0.516,222.0,472.0
2015-03-18,Nairobi,Kenya,36.9167,-1.4167,[36.4167 -1.9167 37.4167 -0.9167000000000001],0.431,0.135,1.048,0.585,0.517,0.082,0.984,0.555,210.0,503.0
2015-03-19,Nairobi,Kenya,36.9167,-1.4167,[36.4167 -1.9167 37.4167 -0.9167000000000001],0.428,0.135,1.048,0.569,0.536,0.099,1.039,0.568,183.0,486.0
2015-03-20,Nairobi,Kenya,36.9167,-1.4167,[36.4167 -1.9167 37.4167 -0.9167000000000001],0.431,0.135,1.04,0.569,0.534,0.095,1.041,0.564,176.0,493.0
2015-03-21,Nairobi,Kenya,36.9167,-1.4167,[36.4167 -1.9167 37.4167 -0.9167000000000001],0.389,0.123,1.031,0.54,0.502,0.086,0.996,0.552,165.0,499.0
2015-03-22,Nairobi,Kenya,36.9167,-1.4167,[36.4167 -1.9167 37.4167 -0.9167000000000001],0.404,0.123,1.048,0.557,0.498,0.068,0.961,0.532,176.0,476.0
2015-03-23,Nairobi,Kenya,36.9167,-1.4167,[36.4167 -1.9167 37.4167 -0.9167000000000001],0.441,0.177,1.106,0.606,0.49,0.078,0.979,0.551,168.0,504.0
2015-03-24,Nairobi,Kenya,36.9167,-1.4167,[36.4167 -1.9167 37.4167 -0.9167000000000001],0.58,0.229,1.071,0.631,0.525,0.095,0.971,0.56,181.0,469.0
2015-03-25,Nairobi,Kenya,36.9167,-1.4167,[36.4167 -1.9167 37.4167 -0.9167000000000001],0.58,0.177,1.048,0.633,0.516,0.092,0.969,0.556,170.0,502.0
2015-03-26,Nairobi,Kenya,36.9167,-1.4167,[36.4167 -1.9167 37.4167 -0.9167000000000001],0.58,0.205,1.048,0.629,0.51,0.102,0.99,0.556,138.0,476.0
2015-03-27,Nairobi,Kenya,36.9167,-1.4167,[36.4167 -1.9167 37.4167 -0.9167000000000001],0.66,0.188,1.107,0.675,0.505,0.103,0.975,0.56,146.0,489.0
2015-03-28,Nairobi,Kenya,36.9167,-1.4167,[36.4167 -1.9167 37.4167 -0.9167000000000001],0.756,0.28,1.124,0.729,0.513,0.105,0.989,0.564,125.0,485.0
2015-03-29,Nairobi,Kenya,36.9167,-1.4167,[36.4167 -1.9167 37.4167 -0.9167000000000001],0.711,0.175,1.117,0.696,0.5,0.111,0.974,0.561,129.0,475.0
2015-03-30,Nairobi,Kenya,36.9167,-1.4167,[36.4167 -1.9167 37.4167 -0.9167000000000001],0.694,0.135,1.117,0.679,0.482,0.09,0.972,0.55,146.0,515.0
2015-03-31,Nairobi,Kenya,36.9167,-1.4167,[36.4167 -1.9167 37.4167 -0.9167000000000001],0.741,0.166,1.124,0.707,0.498,0.096,0.972,0.541,162.0,484.0
2015-04-01,Nairobi,Kenya,36.9167,-1.4167,[36.4167 -1.9167 37.4167 -0.9167000000000001],0.741,0.131,1.138,0.71,0.519,0.102,0.967,0.552,159.0,514.0
2015-04-02,Nairobi,Kenya,36.9167,-1.4167,[36.4167 -1.9167 37.4167 -0.9167000000000001],0.741,0.125,1.136,0.704,0.5,0.073,0.945,0.531,151.0,486.0
2015-04-03,Nairobi,Kenya,36.9167,-1.4167,[36.4167 -1.9167 37.4167 -0.9167000000000001],0.756,0.135,1.152,0.721,0.502,0.068,0.949,0.525,178.0,517.0
2015-04-04,Nairobi,Kenya,36.9167,-1.4167,[36.4167 -1.9167 37.4167 -0.9167000000000001],0.756,0.166,1.248,0.739,0.53,0.104,0.987,0.547,177.0,502.0
2015-04-05,Nairobi,Kenya,36.9167,-1.4167,[36.4167 -1.9167 37.4167 -0.9167000000000001],0.694,0.043,1.152,0.692,0.516,0.086,0.96,0.535,193.0,508.0
2015-04-06,Nairobi,Kenya,36.9167,-1.4167,[36.4167 -1.9167 37.4167 -0.9167000000000001],0.626,0.036,1.138,0.662,0.519,0.093,0.983,0.556,196.0,514.0
2015-04-07,Nairobi,Kenya,36.9167,-1.4167,[36.4167 -1.9167 37.4167 -0.9167000000000001],0.598,0.043,1.16,0.663,0.491,0.098,0.95,0.538,211.0,488.0
2015-04-08,Nairobi,Kenya,36.9167,-1.4167,[36.4167 -1.9167 37.4167 -0.9167000000000001],0.59,0.002,1.248,0.647,0.514,0.102,0.966,0.544,202.0,515.0
2015-04-09,Nairobi,Kenya,36.9167,-1.4167,[36.4167 -1.9167 37.4167 -0.9167000000000001],0.73,0.043,1.255,0.704,0.552,0.095,0.989,0.571,209.0,480.0
2015-04-10,Nairobi,Kenya,36.9167,-1.4167,[36.4167 -1.9167 37.4167 -0.9167000000000001],0.73,0.052,1.255,0.708,0.555,0.095,0.983,0.569,205.0,516.0
2015-04-11,Nairobi,Kenya,36.9167,-1.4167,[36.4167 -1.9167 37.4167 -0.9167000000000001],0.664,0.052,1.248,0.675,0.547,0.098,0.984,0.568,184.0,494.0
2015-04-12,Nairobi,Kenya,36.9167,-1.4167,[36.4167 -1.9167 37.4167 -0.9167000000000001],0.625,0.036,1.213,0.635,0.527,0.089,0.995,0.566,214.0,509.0
2015-04-13,Nairobi,Kenya,36.9167,-1.4167,[36.4167 -1.9167 37.4167 -0.9167000000000001],0.627,0.036,1.16,0.628,0.515,0.067,0.972,0.569,196.0,510.0
2015-04-14,Nairobi,Kenya,36.9167,-1.4167,[36.4167 -1.9167 37.4167 -0.9167000000000001],0.627,0.028,1.228,0.634,0.51,0.07,0.971,0.566,202.0,504.0
2015-04-15,Nairobi,Kenya,36.9167,-1.4167,[36.4167 -1.9167 37.4167 -0.9167000000000001],0.58,-0.003,1.208,0.611,0.51,0.056,0.99,0.565,204.0,520.0
2015-04-16,Nairobi,Kenya,36.9167,-1.4167,[36.4167 -1.9167 37.4167 -0.9167000000000001],0.58,-0.003,1.208,0.611,0.494,0.04,0.994,0.562,204.0,467.0
2015-04-17,Nairobi,Kenya,36.9167,-1.4167,[36.4167 -1.9167 37.4167 -0.9167000000000001],0.58,-0.003,1.208,0.611,0.496,0.039,1.001,0.566,204.0,496.0
2015-04-18,Nairobi,Kenya,36.9167,-1.4167,[36.4167 -1.9167 37.4167 -0.9167000000000001],0.526,0.067,1.007,0.56,0.515,0.069,0.967,0.567,195.0,469.0
2015-04-19,Nairobi,Kenya,36.9167,-1.4167,[36.4167 -1.9167 37.4167 -0.9167000000000001],0.503,0.064,0.897,0.522,0.49,0.017,0.95,0.553,213.0,497.0
2015-04-20,Nairobi,Kenya,36.9167,-1.4167,[36.4167 -1.9167 37.4167 -0.9167000000000001],0.526,0.067,0.987,0.545,0.513,0.057,0.986,0.584,189.0,482.0
2015-04-21,Nairobi,Kenya,36.9167,-1.4167,[36.4167 -1.9167 37.4167 -0.9167000000000001],0.545,0.079,1.007,0.568,0.472,0.039,0.97,0.557,171.0,490.0
2015-04-22,Nairobi,Kenya,36.9167,-1.4167,[36.4167 -1.9167 37.4167 -0.9167000000000001],0.545,0.067,0.965,0.566,0.505,0.024,0.959,0.572,169.0,503.0
2015-04-23,Nairobi,Kenya,36.9167,-1.4167,[36.4167 -1.9167 37.4167 -0.9167000000000001],0.545,0.064,0.882,0.547,0.504,0.035,0.928,0.56,175.0,483.0
2015-04-24,Nairobi,Kenya,36.9167,-1.4167,[36.4167 -1.9167 37.4167 -0.9167000000000001],0.456,0.062,0.756,0.473,0.496,0.038,0.874,0.541,174.0,510.0
2015-04-25,Nairobi,Kenya,36.9167,-1.4167,[36.4167 -1.9167 37.4167 -0.9167000000000001],0.515,0.064,0.788,0.502,0.492,0.075,0.902,0.554,181.0,472.0
2015-04-26,Nairobi,Kenya,36.9167,-1.4167,[36.4167 -1.9167 37.4167 -0.9167000000000001],0.526,0.064,0.844,0.506,0.48,0.1,0.912,0.539,176.0,506.0
2015-04-27,Nairobi,Kenya,36.9167,-1.4167,[36.4167 -1.9167 37.4167 -0.9167000000000001],0.545,0.067,0.853,0.547,0.492,0.103,0.911,0.556,153.0,480.0
2015-04-28,Nairobi,Kenya,36.9167,-1.4167,[36.4167 -1.9167 37.4167 -0.9167000000000001],0.545,0.124,0.853,0.571,0.507,0.125,0.913,0.564,158.0,496.0
2015-04-29,Nairobi,Kenya,36.9167,-1.4167,[36.4167 -1.9167 37.4167 -0.9167000000000001],0.543,0.141,0.853,0.572,0.529,0.13,0.906,0.576,148.0,489.0
2015-04-30,Nairobi,Kenya,36.9167,-1.4167,[36.4167 -1.9167 37.4167 -0.9167000000000001],0.519,0.124,0.849,0.553,0.505,0.125,0.879,0.56,138.0,483.0
2015-05-01,Nairobi,Kenya,36.9167,-1.4167,[36.4167 -1.9167 37.4167 -0.9167000000000001],0.503,0.124,0.849,0.552,0.504,0.153,0.895,0.565,154.0,523.0
2015-05-02,Nairobi,Kenya,36.9167,-1.4167,[36.4167 -1.9167 37.4167 -0.9167000000000001],0.515,0.07,0.853,0.552,0.517,0.145,0.893,0.57,164.0,493.0
2015-05-03,Nairobi,Kenya,36.9167,-1.4167,[36.4167 -1.9167 37.4167 -0.9167000000000001],0.545,0.062,0.995,0.583,0.535,0.15,0.925,0.59,146.0,520.0
2015-05-04,Nairobi,Kenya,36.9167,-1.4167,[36.4167 -1.9167 37.4167 -0.9167000000000001],0.543,0.062,0.853,0.538,0.538,0.148,0.908,0.583,126.0,493.0
2015-05-05,Nairobi,Kenya,36.9167,-1.4167,[36.4167 -1.9167 37.4167 -0.9167000000000001],0.556,0.069,0.876,0.575,0.539,0.17,0.876,0.58,154.0,524.0
2015-05-06,Nairobi,Kenya,36.9167,-1.4167,[36.4167 -1.9167 37.4167 -0.9167000000000001],0.575,0.101,1.007,0.606,0.575,0.184,0.965,0.625,163.0,509.0
2015-05-07,Nairobi,Kenya,36.9167,-1.4167,[36.4167 -1.9167 37.4167 -0.9167000000000001],0.575,0.101,1.007,0.608,0.578,0.178,0.974,0.626,170.0,513.0
2015-05-08,Nairobi,Kenya,36.9167,-1.4167,[36.4167 -1.9167 37.4167 -0.9167000000000001],0.613,0.126,1.015,0.636,0.589,0.165,0.993,0.63,184.0,521.0
2015-05-09,Nairobi,Kenya,36.9167,-1.4167,[36.4167 -1.9167 37.4167 -0.9167000000000001],0.613,0.138,1.007,0.623,0.57,0.153,0.938,0.606,199.0,504.0
2015-05-10,Nairobi,Kenya,36.9167,-1.4167,[36.4167 -1.9167 37.4167 -0.9167000000000001],0.556,0.101,1.026,0.604,0.534,0.137,0.936,0.596,196.0,533.0
2015-05-11,Nairobi,Kenya,36.9167,-1.4167,[36.4167 -1.9167 37.4167 -0.9167000000000001],0.556,0.101,1.06,0.611,0.546,0.14,0.951,0.603,206.0,497.0
2015-05-12,Nairobi,Kenya,36.9167,-1.4167,[36.4167 -1.9167 37.4167 -0.9167000000000001],0.556,0.084,1.055,0.608,0.527,0.127,0.934,0.583,194.0,534.0
2015-05-13,Nairobi,Kenya,36.9167,-1.4167,[36.4167 -1.9167 37.4167 -0.9167000000000001],0.613,0.101,1.007,0.613,0.545,0.118,0.936,0.584,189.0,507.0
2015-05-14,Nairobi,Kenya,36.9167,-1.4167,[36.4167 -1.9167 37.4167 -0.9167000000000001],0.617,0.095,1.007,0.622,0.552,0.131,0.927,0.586,193.0,525.0
2015-05-15,Nairobi,Kenya,36.9167,-1.4167,[36.4167 -1.9167 37.4167 -0.9167000000000001],0.617,0.101,1.007,0.619,0.542,0.122,0.921,0.579,201.0,520.0
2015-05-16,Nairobi,Kenya,36.9167,-1.4167,[36.4167 -1.9167 37.4167 -0.9167000000000001],0.642,0.138,1.007,0.637,0.526,0.124,0.902,0.573,197.0,514.0
2015-05-17,Nairobi,Kenya,36.9167,-1.4167,[36.4167 -1.9167 37.4167 -0.9167000000000001],0.617,0.15,1.007,0.648,0.5,0.12,0.878,0.56,198.0,530.0
2015-05-18,Nairobi,Kenya,36.9167,-1.4167,[36.4167 -1.9167 37.4167 -0.9167000000000001],0.617,0.15,1.007,0.648,0.497,0.118,0.864,0.543,198.0,479.0
2015-05-19,Nairobi,Kenya,36.9167,-1.4167,[36.4167 -1.9167 37.4167 -0.9167000000000001],0.726,0.194,1.076,0.719,0.504,0.146,0.841,0.554,185.0,507.0
2015-05-20,Nairobi,Kenya,36.9167,-1.4167,[36.4167 -1.9167 37.4167 -0.9167000000000001],0.613,0.184,1.007,0.657,0.476,0.112,0.876,0.539,168.0,478.0
2015-05-21,Nairobi,Kenya,36.9167,-1.4167,[36.4167 -1.9167 37.4167 -0.9167000000000001],0.567,0.15,0.964,0.644,0.463,0.133,0.846,0.527,186.0,507.0
2015-05-22,Nairobi,Kenya,36.9167,-1.4167,[36.4167 -1.9167 37.4167 -0.9167000000000001],0.549,0.161,0.954,0.635,0.465,0.132,0.828,0.527,163.0,489.0
2015-05-23,Nairobi,Kenya,36.9167,-1.4167,[36.4167 -1.9167 37.4167 -0.9167000000000001],0.571,0.194,0.954,0.625,0.472,0.127,0.844,0.525,141.0,492.0
2015-05-24,Nairobi,Kenya,36.9167,-1.4167,[36.4167 -1.9167 37.4167 -0.9167000000000001],0.549,0.235,0.943,0.646,0.472,0.15,0.83,0.538,121.0,497.0
2015-05-25,Nairobi,Kenya,36.9167,-1.4167,[36.4167 -1.9167 37.4167 -0.9167000000000001],0.563,0.262,0.943,0.651,0.493,0.166,0.883,0.544,117.0,478.0
2015-05-26,Nairobi,Kenya,36.9167,-1.4167,[36.4167 -1.9167 37.4167 -0.9167000000000001],0.545,0.262,0.916,0.65,0.507,0.184,0.893,0.561,111.0,505.0
2015-05-27,Nairobi,Kenya,36.9167,-1.4167,[36.4167 -1.9167 37.4167 -0.9167000000000001],0.513,0.262,0.937,0.648,0.515,0.19,0.925,0.573,118.0,466.0
2015-05-28,Nairobi,Kenya,36.9167,-1.4167,[36.4167 -1.9167 37.4167 -0.9167000000000001],0.513,0.262,0.954,0.649,0.515,0.206,0.929,0.576,111.0,502.0
2015-05-29,Nairobi,Kenya,36.9167,-1.4167,[36.4167 -1.9167 37.4167 -0.9167000000000001],0.571,0.273,1.054,0.741,0.545,0.211,0.948,0.601,99.0,477.0
2015-05-30,Nairobi,Kenya,36.9167,-1.4167,[36.4167 -1.9167 37.4167 -0.9167000000000001],0.694,0.278,1.151,0.78,0.581,0.224,1.017,0.629,83.0,495.0
2015-05-31,Nairobi,Kenya,36.9167,-1.4167,[36.4167 -1.9167 37.4167 -0.9167000000000001],0.524,0.273,1.151,0.748,0.558,0.203,1.019,0.628,78.0,489.0
2015-06-01,Nairobi,Kenya,36.9167,-1.4167,[36.4167 -1.9167 37.4167 -0.9167000000000001],0.513,0.273,1.147,0.725,0.559,0.22,1.066,0.642,72.0,484.0
2015-06-02,Nairobi,Kenya,36.9167,-1.4167,[36.4167 -1.9167 37.4167 -0.9167000000000001],0.513,0.273,1.147,0.71,0.588,0.207,1.103,0.645,81.0,522.0
2015-06-03,Nairobi,Kenya,36.9167,-1.4167,[36.4167 -1.9167 37.4167 -0.9167000000000001],0.479,0.131,1.004,0.647,0.603,0.171,1.067,0.651,95.0,492.0
2015-06-04,Nairobi,Kenya,36.9167,-1.4167,[36.4167 -1.9167 37.4167 -0.9167000000000001],0.545,0.094,1.183,0.7,0.626,0.185,1.14,0.684,84.0,520.0
2015-06-05,Nairobi,Kenya,36.9167,-1.4167,[36.4167 -1.9167 37.4167 -0.9167000000000001],0.468,0.16,0.91,0.632,0.61,0.198,1.156,0.685,61.0,493.0
2015-06-06,Nairobi,Kenya,36.9167,-1.4167,[36.4167 -1.9167 37.4167 -0.9167000000000001],0.468,0.111,0.91,0.625,0.624,0.177,1.167,0.687,74.0,522.0
2015-06-07,Nairobi,Kenya,36.9167,-1.4167,[36.4167 -1.9167 37.4167 -0.9167000000000001],0.478,0.081,0.91,0.59,0.641,0.187,1.2,0.702,84.0,506.0
2015-06-08,Nairobi,Kenya,36.9167,-1.4167,[36.4167 -1.9167 37.4167 -0.9167000000000001],0.479,0.094,0.91,0.653,0.654,0.198,1.224,0.718,111.0,509.0
2015-06-09,Nairobi,Kenya,36.9167,-1.4167,[36.4167 -1.9167 37.4167 -0.9167000000000001],0.468,0.076,0.91,0.606,0.625,0.179,1.154,0.701,134.0,512.0
2015-06-10,Nairobi,Kenya,36.9167,-1.4167,[36.4167 -1.9167 37.4167 -0.9167000000000001],0.468,0.094,0.91,0.628,0.614,0.142,1.132,0.692,143.0,492.0